GSAT-15 (41028 NORAD) Tracking and Keplerian Element Data

This shows tracking and keplerian element data for the satellite.

Feedback or suggestion? Click here.




ElementValue
Catalog41028
NameGSAT-15
Epoch Orbit1133
Epoch Day344.52031195
Epoch Year2018
RAAN284.9136
Inclination0.0165
Eccentricity0.0002335
Argument of Perigee308.0193
Mean Anonmoly127.057
Mean Motion1.00272599
Decay Rate-2.53E-06
L11 41028U 15065A 18344.52031195 -.00000253 00000-0 00000+0 0 9998
L22 41028 0.0165 284.9136 0002335 308.0193 127.0570 1.00272599 11334

Live tracking and technical data element details for GSAT-15 (NORAD 41028). GSAT-15 can be tracked NOW for your location showing map with azimuth and elevation plus other details from your city location.

Track the satellite on the map from your city or location and see movement details for azimuth, elevation, latitude, longitude, range, height, and movement on the map or in text.







IsCatalogInMostPopularTable: catalog: 41028, numindb: 82
Update: records affected: 1



GetName: 41028 GSAT-15

Hit Count: updated at: Thu, 13 Dec 2018 05:02:00 GMT